Location: Laas
(43.4693°N, 0.3073°E)
Time: 16:09:43
(UTC+00:00)

FALCON 9 DEB - Pass Details

Date: 25 October 2020
Orbit: 379 x 394 km, 53.0° (Epoch: 23 November)

Event Time Altitude Azimuth Distance (km) Brightness Sun altitude
Rises 18:34:42 0° 244° (WSW) 2,290 7.9 -17.9°
Reaches altitude 10° 18:36:47 10° 248° (WSW) 1,432 6.8 -18.3°
Maximum altitude 18:39:57 56° 328° (NNW) 471 3.4 -18.9°
Enters shadow 18:40:29 48° 11° (N) 524 3.4 -19.0°
